Location: Brno
(49.2000°N, 16.6330°E)
Time: 02:38:33
(UTC+02:00)

Cosmos 2227 - Visible Passes

Search period start: 25 July 2014 00:00
Search period end: 04 August 2014 00:00
Orbit: 834 x 863 km, 71.0° (Epoch: 24 July)

Date Brightness Start Highest point End Pass type
(mag) Time Alt. Az. Time Alt. Az. Time Alt. Az.
25 Jul 4.9 00:57:51 34° SE 00:59:12 39° ESE 01:04:26 10° NE visible
25 Jul 5.1 02:39:47 20° WSW 02:43:22 42° NW 02:48:48 10° NNE visible
25 Jul 6.5 04:26:40 10° NW 04:29:14 13° NNW 04:31:49 10° N visible
26 Jul 4.9 00:45:00 34° SE 00:46:12 38° ESE 00:51:25 10° NE visible
26 Jul 5.1 02:26:57 21° WSW 02:30:22 43° NW 02:35:48 10° NNE visible
26 Jul 6.5 04:13:36 10° NW 04:16:13 13° NNW 04:18:51 10° N visible
27 Jul 4.9 00:32:08 35° SE 00:33:13 38° ESE 00:38:25 10° NE visible
27 Jul 5.1 02:14:04 22° WSW 02:17:22 43° NW 02:22:49 10° NNE visible
27 Jul 6.6 04:00:33 10° NW 04:03:12 13° NNW 04:05:52 10° N visible
28 Jul 4.9 00:19:14 35° SE 00:20:13 37° ESE 00:25:25 10° NE visible
28 Jul 5.1 02:01:10 23° WSW 02:04:21 44° NW 02:09:49 10° NNE visible
28 Jul 6.6 03:47:30 10° WNW 03:50:11 13° NNW 03:52:53 10° N visible
29 Jul 4.9 00:06:17 34° SE 00:07:14 37° ESE 00:12:24 10° NE visible
29 Jul 5.0 01:48:13 23° WSW 01:51:21 44° NW 01:56:50 10° NNE visible
29 Jul 6.6 03:34:26 10° WNW 03:37:10 13° NNW 03:39:55 10° N visible
29 Jul 4.8 23:53:19 34° SE 23:54:14 36° ESE 23:59:24 10° NE visible
30 Jul 5.0 01:35:14 24° WSW 01:38:21 45° NW 01:43:50 10° NNE visible
30 Jul 6.6 03:21:23 10° WNW 03:24:09 14° NNW 03:26:56 10° N visible
30 Jul 4.9 23:40:17 34° SE 23:41:15 36° ESE 23:46:24 10° NE visible
31 Jul 5.0 01:22:13 24° WSW 01:25:21 45° NW 01:30:51 10° NNE visible
31 Jul 6.6 03:08:20 10° WNW 03:11:08 14° NNW 03:13:57 10° N visible
31 Jul 4.9 23:27:13 33° SE 23:28:15 35° ESE 23:33:23 10° NE visible
01 Aug 5.0 01:09:08 23° WSW 01:12:21 46° NW 01:17:51 10° NNE visible
01 Aug 6.7 02:55:17 10° WNW 02:58:07 14° NNW 03:00:58 10° N visible
01 Aug 4.9 23:14:05 32° SE 23:15:16 35° ESE 23:20:23 10° NE visible
02 Aug 5.0 00:56:00 22° WSW 00:59:20 46° NW 01:04:51 10° NNE visible
02 Aug 6.7 02:42:14 10° WNW 02:45:06 14° NNW 02:48:00 10° N visible
02 Aug 4.9 23:00:54 30° SE 23:02:16 35° ESE 23:07:23 10° NE visible
03 Aug 5.0 00:42:48 21° WSW 00:46:20 47° NW 00:51:52 10° NNE visible
03 Aug 6.7 02:29:11 10° WNW 02:32:05 14° NNW 02:35:01 10° N visible
03 Aug 4.9 22:47:37 29° SE 22:49:17 34° ESE 22:54:22 10° NE visible
